Tracking 35275 objects as of 9-Sep-2026
HD Live streaming from Space Station
objects crossing your sky now

SL-4 DEB


SL-4 DEB is no longer on orbit


NORAD ID: 8071
Int'l Code: 1975-073C
Launch date: August 13, 1975
Source: Commonwealth of Independent States (former USSR) (CIS)
Launch site: TYURATAM MISSILE AND SPACE COMPLEX (TTMTR)
Decay date: 1975-08-15

Note: This is SATELLITE DEBRIS
Your satellite tracking list
Your tracking list is empty




NASA's NSSDC Master Catalog

Two Line Element Set (TLE):
1 08071U 75073  C 75226.23096941  .05933827 +00000-0 +00000-0 0  9991
2 08071 071.3745 113.3202 0032227 046.4808 313.9040 16.19863147000155
Source of the keplerian elements: AFSPC